TimeCDT,TemperatureF,Dew PointF,Humidity,Sea Level PressureIn,VisibilityMPH,Wind Direction,Wind SpeedMPH,Gust SpeedMPH,PrecipitationIn,Events,Conditions,WindDirDegrees,DateUTC
12:15 AM,62.6,60.8,94,29.67,10.0,SSE,8.1,-,N/A,,Overcast,160,2012-10-14 05:15:00
12:35 AM,62.6,60.8,94,29.66,10.0,SSE,8.1,-,N/A,,Overcast,160,2012-10-14 05:35:00
12:55 AM,62.6,60.8,94,29.65,10.0,South,4.6,-,N/A,,Mostly Cloudy,170,2012-10-14 05:55:00
1:15 AM,62.6,60.8,94,29.65,10.0,South,5.8,-,N/A,,Overcast,170,2012-10-14 06:15:00
1:35 AM,62.6,59.0,88,29.64,10.0,SSW,4.6,-,N/A,,Overcast,200,2012-10-14 06:35:00
1:55 AM,62.6,59.0,88,29.64,10.0,South,6.9,-,N/A,,Overcast,170,2012-10-14 06:55:00
2:15 AM,62.6,59.0,88,29.63,10.0,South,8.1,-,N/A,,Overcast,180,2012-10-14 07:15:00
2:55 AM,62.6,59.0,88,29.61,10.0,SSE,10.4,-,N/A,,Overcast,160,2012-10-14 07:55:00
3:15 AM,62.6,59.0,88,29.59,10.0,SSE,10.4,17.3,N/A,,Scattered Clouds,160,2012-10-14 08:15:00
3:35 AM,62.6,59.0,88,29.58,10.0,SSE,9.2,-,N/A,,Scattered Clouds,160,2012-10-14 08:35:00
3:55 AM,62.6,60.8,94,29.58,10.0,South,10.4,16.1,N/A,,Mostly Cloudy,180,2012-10-14 08:55:00
4:15 AM,62.6,60.8,94,29.58,10.0,South,9.2,16.1,N/A,,Mostly Cloudy,180,2012-10-14 09:15:00
4:35 AM,62.6,59.0,88,29.57,10.0,South,8.1,-,N/A,,Clear,170,2012-10-14 09:35:00
4:55 AM,62.6,59.0,88,29.57,10.0,South,10.4,-,N/A,,Scattered Clouds,170,2012-10-14 09:55:00
5:15 AM,62.6,60.8,94,29.57,10.0,South,9.2,-,N/A,,Mostly Cloudy,180,2012-10-14 10:15:00
5:35 AM,62.6,60.8,94,29.57,10.0,South,12.7,18.4,N/A,,Mostly Cloudy,190,2012-10-14 10:35:00
5:55 AM,62.6,59.0,88,29.58,10.0,SSW,12.7,18.4,N/A,,Overcast,200,2012-10-14 10:55:00
6:15 AM,62.6,59.0,88,29.61,10.0,SW,12.7,19.6,N/A,,Overcast,220,2012-10-14 11:15:00
6:35 AM,62.6,59.0,88,29.62,10.0,SW,16.1,-,N/A,,Overcast,230,2012-10-14 11:35:00
6:55 AM,62.6,59.0,88,29.64,10.0,WSW,10.4,-,N/A,,Light Drizzle,240,2012-10-14 11:55:00
7:15 AM,62.6,57.2,82,29.63,10.0,West,6.9,16.1,N/A,,Scattered Clouds,260,2012-10-14 12:15:00
7:35 AM,60.8,57.2,88,29.64,10.0,SW,4.6,-,N/A,,Scattered Clouds,230,2012-10-14 12:35:00
7:55 AM,60.8,53.6,77,29.65,10.0,West,9.2,-,N/A,,Scattered Clouds,260,2012-10-14 12:55:00
8:15 AM,60.8,53.6,77,29.67,10.0,SW,6.9,-,N/A,,Clear,230,2012-10-14 13:15:00
8:35 AM,60.8,53.6,77,29.68,10.0,West,13.8,23.0,N/A,,Clear,260,2012-10-14 13:35:00
8:55 AM,62.6,53.6,72,29.68,10.0,West,8.1,-,N/A,,Clear,270,2012-10-14 13:55:00
9:15 AM,62.6,53.6,72,29.70,10.0,WNW,9.2,16.1,N/A,,Clear,290,2012-10-14 14:15:00
9:35 AM,62.6,53.6,72,29.72,10.0,West,13.8,19.6,N/A,,Scattered Clouds,280,2012-10-14 14:35:00
9:55 AM,60.8,51.8,72,29.75,10.0,WNW,16.1,25.3,N/A,,Mostly Cloudy,290,2012-10-14 14:55:00
10:35 AM,60.8,51.8,72,29.78,10.0,West,13.8,25.3,N/A,,Overcast,280,2012-10-14 15:35:00
10:55 AM,60.8,51.8,72,29.80,10.0,West,13.8,18.4,N/A,,Overcast,280,2012-10-14 15:55:00
11:15 AM,60.8,51.8,72,29.81,10.0,West,15.0,19.6,N/A,,Overcast,280,2012-10-14 16:15:00
11:35 AM,62.6,51.8,68,29.83,10.0,West,13.8,19.6,N/A,,Overcast,280,2012-10-14 16:35:00
11:55 AM,62.6,51.8,68,29.84,10.0,West,15.0,20.7,N/A,,Mostly Cloudy,270,2012-10-14 16:55:00
12:15 PM,62.6,50.0,63,29.85,10.0,West,19.6,27.6,N/A,,Scattered Clouds,280,2012-10-14 17:15:00
12:35 PM,64.4,50.0,59,29.86,10.0,WNW,12.7,18.4,N/A,,Scattered Clouds,290,2012-10-14 17:35:00
12:55 PM,64.4,50.0,59,29.87,10.0,WNW,13.8,17.3,N/A,,Scattered Clouds,290,2012-10-14 17:55:00
1:15 PM,66.2,50.0,56,29.87,10.0,West,15.0,19.6,N/A,,Clear,280,2012-10-14 18:15:00
1:35 PM,68.0,48.2,49,29.88,10.0,West,15.0,23.0,N/A,,Clear,270,2012-10-14 18:35:00
1:55 PM,68.0,44.6,43,29.88,10.0,WNW,13.8,26.5,N/A,,Clear,300,2012-10-14 18:55:00
2:15 PM,68.0,44.6,43,29.87,10.0,WNW,16.1,26.5,N/A,,Clear,290,2012-10-14 19:15:00
2:35 PM,68.0,42.8,40,29.89,10.0,WNW,16.1,25.3,N/A,,Clear,300,2012-10-14 19:35:00
2:55 PM,68.0,42.8,40,29.89,10.0,West,13.8,-,N/A,,Clear,280,2012-10-14 19:55:00
3:15 PM,68.0,42.8,40,29.90,10.0,West,15.0,23.0,N/A,,Clear,280,2012-10-14 20:15:00
3:35 PM,68.0,41.0,37,29.90,10.0,West,18.4,23.0,N/A,,Clear,280,2012-10-14 20:35:00
3:55 PM,68.0,42.8,40,29.91,10.0,WNW,12.7,20.7,N/A,,Clear,300,2012-10-14 20:55:00
4:15 PM,68.0,41.0,37,29.91,10.0,WNW,15.0,20.7,N/A,,Clear,300,2012-10-14 21:15:00
4:35 PM,68.0,41.0,37,29.91,10.0,WNW,13.8,21.9,N/A,,Clear,290,2012-10-14 21:35:00
4:55 PM,66.2,41.0,40,29.93,10.0,West,17.3,23.0,N/A,,Clear,280,2012-10-14 21:55:00
5:15 PM,66.2,41.0,40,29.93,10.0,West,18.4,23.0,N/A,,Clear,280,2012-10-14 22:15:00
5:35 PM,64.4,39.2,40,29.94,10.0,West,11.5,21.9,N/A,,Clear,280,2012-10-14 22:35:00
5:55 PM,64.4,39.2,40,29.94,10.0,WNW,9.2,-,N/A,,Clear,300,2012-10-14 22:55:00
6:15 PM,62.6,41.0,45,29.95,10.0,WNW,8.1,-,N/A,,Clear,290,2012-10-14 23:15:00
6:35 PM,60.8,41.0,48,29.95,10.0,WNW,4.6,-,N/A,,Clear,290,2012-10-14 23:35:00
6:55 PM,59.0,41.0,51,29.96,10.0,West,4.6,-,N/A,,Clear,270,2012-10-14 23:55:00
7:15 PM,59.0,41.0,51,29.96,10.0,West,3.5,-,N/A,,Clear,260,2012-10-15 00:15:00
7:35 PM,59.0,41.0,51,29.96,10.0,West,4.6,-,N/A,,Clear,260,2012-10-15 00:35:00
7:55 PM,57.2,41.0,55,29.97,10.0,WSW,3.5,-,N/A,,Clear,250,2012-10-15 00:55:00
8:15 PM,55.4,41.0,58,29.97,10.0,West,3.5,-,N/A,,Clear,260,2012-10-15 01:15:00
8:35 PM,55.4,41.0,58,29.98,10.0,WSW,4.6,-,N/A,,Clear,250,2012-10-15 01:35:00
8:55 PM,53.6,41.0,62,29.99,10.0,WSW,4.6,-,N/A,,Clear,250,2012-10-15 01:55:00
9:15 PM,53.6,41.0,62,29.99,10.0,WSW,4.6,-,N/A,,Clear,250,2012-10-15 02:15:00
9:35 PM,53.6,41.0,62,29.99,10.0,West,4.6,-,N/A,,Clear,260,2012-10-15 02:35:00
9:55 PM,53.6,41.0,62,30.00,10.0,WSW,3.5,-,N/A,,Clear,240,2012-10-15 02:55:00
10:15 PM,51.8,41.0,67,29.99,10.0,Calm,Calm,-,N/A,,Clear,0,2012-10-15 03:15:00
10:35 PM,51.8,42.8,71,30.00,10.0,SW,4.6,-,N/A,,Clear,230,2012-10-15 03:35:00
10:55 PM,51.8,42.8,71,30.00,10.0,SW,4.6,-,N/A,,Clear,230,2012-10-15 03:55:00
11:15 PM,51.8,42.8,71,30.00,10.0,Calm,Calm,-,N/A,,Clear,0,2012-10-15 04:15:00
11:35 PM,50.0,42.8,76,30.00,10.0,Calm,Calm,-,N/A,,Clear,0,2012-10-15 04:35:00
11:55 PM,50.0,42.8,76,30.00,10.0,Calm,Calm,-,N/A,,Clear,0,2012-10-15 04:55:00